Погода в Сосуа

Доминиканская Республика     19°46′25″N   70°29′52″W
В апреле 2022 года жителям России запретили посещать сайт meteo.paraplan.net по решению Генеральной прокуратуры. Аудитория сайта уменьшилась в 10 раз. Владельцы сайта не видят смысла в поддержке погодного сервера в таких условиях. Сайт будет закрыт в октябре.
темп.,
°C
ветер,
м/с
пор.,
м/с
влажн.,
%
обл.,
%
осадки,
мм/ч
давл.,
гПа
погр.,
м
3 октября, пн
пн323:00+26юз127999 0.0 101579
02:00+25ююз2282100 0.0 101389
05:00+24ю228649 0.0 101387
08:00+25ю1181100 0.0 1014130
11:00+29ссв226474 0.0 1014729
14:00+29с436863 0.0 1012564
17:00+28с347193 0.5 1012623
20:00+25сз018439 4.3 101357
4 октября, вт
вт423:00+25юз228587 2.1 101479
02:00+24юз228672 2.1 101389
05:00+24ююз228392 0.0 101272
08:00+25ююз1177100 0.0 101499
11:00+29св226034 0.0 1014659
14:00+29св436692 0.0 1012605
17:00+28св2271100 0.6 1011587
20:00+25вюв238777 4.6 1013135
5 октября, ср
ср523:00+25ююв338816 1.1 1013155
02:00+24ююв228656 1.2 1012127
05:00+24ююз128667 0.1 1012102
08:00+25ю118371 0.1 1013132
11:00+29всв3364100 0.0 1013772
14:00+29всв4369100 0.0 1011691
17:00+28всв4473100 0.6 1011744
20:00+26в468599 1.8 1013486
6 октября, чт
чт623:00+25юв348943 1.8 1014205
02:00+24ююв2389100 2.0 1013155
05:00+24юв2389100 0.1 1012165
08:00+25юв2387100 0.1 1014238
11:00+29всв346653 0.0 1014861
14:00+29всв556717 0.1 1012856
17:00+28всв557113 0.1 1012880
20:00+26в468025 0.2 1014573
7 октября, пт
пт723:00+26юв35825 0.1 1015464
02:00+25юв3484100 0.7 1013256
05:00+24ююв238344 0.0 1013144
08:00+26ююв237866 0.0 1015209
11:00+29в466777 0.1 1015981
14:00+29в67675 0.2 1013942
17:00+28в67721 0.0 1012780
20:00+26вюв478715 0.4 1014495